This demonstration page uses our WeatherBlox Daily Observations layout. Learn more.

Left ArrowRight Arrow

41.55636, -103.73856

Hourly Observations for February 21, 2015

Temp ( °F °C ) Dew Point ( °F °C ) Humidity (%) Winds ( mph kmh ) Pressure ( in mb ) Visibility ( mi km ) Precip ( " mm )
12:53 am 00:53 Clear 26 -3.3 23 -5 88 88 WNW 8 13 30.01 1016 10 16.0934 0 0
1:53 am 01:53 Clear 25 -3.9 23 -5 92 92 NW 6 9 30.01 1016 10 16.0934 0 0
2:53 am 02:53 Mostly Clear 25 -3.9 22 -5.6 88 88 WNW 5 7 30 1016 10 16.0934 0 0
3:53 am 03:53 Clear 23 -5 21 -6.1 92 92 WNW 3 6 30 1016 10 16.0934 0 0
4:53 am 04:53 Cloudy 26 -3.3 23 -5 88 88 NW 7 11 30.01 1016 10 16.0934 0 0
5:53 am 05:53 Clear 25 -3.9 23 -5 92 92 WNW 5 7 30.03 1017 10 16.0934 0 0
6:53 am 06:53 Mostly Cloudy 26 -3.3 23 -5 88 88 WNW 8 13 30.03 1017 10 16.0934 0 0
7:53 am 07:53 Cloudy 28 -2.2 26 -3.3 92 92 NNW 6 9 30.05 1018 10 16.0934 0 0
8:53 am 08:53 Cloudy 33 0.6 28 -2.2 82 82 N 9 15 30.06 1018 10 16.0934 0 0.0254
9:21 am 09:21 Cloudy with Light Snow 33 0.6 29 -1.7 85 85 NNE 7 11 30.09 1019 2.5 4.02335 0 0.0254
9:30 am 09:30 Cloudy with Light Snow 32 0 28 -2 87 87 N 8 13 30.12 1020 1.25 2.011675 0 0
9:38 am 09:38 Cloudy with Light Snow 32 0 28 -2 87 87 NNE 7 11 30.12 1020 0.75 1.207005 0 0
9:46 am 09:46 Cloudy with Light Snow 32 0 29 -1.7 88 88 NE 10 17 30.12 1020 0.75 1.207005 0.01 0.254
9:53 am 09:53 Cloudy with Light Snow 32 0 28 -2.2 85 85 NE 9 15 30.08 1019 0.75 1.207005 0.01 0.254
10:53 am 10:53 Cloudy with Light Snow 28 -2.2 24 -4.4 85 85 ENE 18 30 30.13 1020 1.5 2.41401 0.01 0.254
11:04 am 11:04 Cloudy with Light Snow 28 -2 23 -5 80 80 NE 18 30 30.21 1023 0.75 1.207005 0 0
11:39 am 11:39 Mostly Cloudy with Snow 27 -2.8 23 -5 85 85 NE 16 26 30.24 1024 0.5 0.80467 0.01 0.254
11:53 am 11:53 Mostly Cloudy with Light Snow 27 -2.8 23 -5 85 85 NE 15 24 30.16 1021 0.75 1.207005 0.01 0.254
12:00 pm 12:00 Mostly Cloudy with Light Snow 28 -2 23 -5 80 80 NE 15 24 30.21 1023 1 1.60934 0 0
12:53 pm 12:53 Cloudy with Light Snow 28 -2.2 22 -5.6 78 78 NE 13 20 30.17 1022 2 3.21868 0.01 0.254
1:18 pm 13:18 Cloudy with Light Snow 30 -1 23 -5 75 75 NE 7 11 30.24 1024 4 6.43736 0 0
1:53 pm 13:53 Cloudy with Light Snow 30 -1.1 23 -5 75 75 NNE 13 20 30.17 1022 6 9.65604 0 0.0254
2:28 pm 14:28 Cloudy 28 -2 21 -6 74 74 NNE 14 22 30.24 1024 9 14.48406 0 0
2:53 pm 14:53 Cloudy with Light Snow 28 -2.2 22 -5.6 78 78 NE 13 20 30.2 1023 4 6.43736 0 0.0254
3:05 pm 15:05 Cloudy with Light Snow 28 -2.2 21 -6.1 75 75 NNE 13 20 30.27 1025 2.5 4.02335 0 0.0254
3:12 pm 15:12 Cloudy with Light Snow 28 -2 21 -6 74 74 NNE 14 22 30.27 1025 4 6.43736 0 0
3:21 pm 15:21 Cloudy 28 -2.2 20 -6.7 72 72 NNE 15 24 30.27 1025 8 12.87472 0 0.0254
3:53 pm 15:53 Cloudy 26 -3.3 19 -7.2 75 75 NNE 17 28 30.24 1024 8 12.87472 0 0.0254
4:53 pm 16:53 Cloudy 23 -5 15 -9.4 72 72 NNE 17 28 30.28 1026 10 16.0934 0 0.0254
5:53 pm 17:53 Cloudy 22 -5.6 14 -10 71 71 NNE 10 17 30.33 1027 10 16.0934 0 0
6:53 pm 18:53 Cloudy 21 -6.1 14 -10 74 74 N 13 20 30.35 1028 10 16.0934 0 0
7:53 pm 19:53 Cloudy 20 -6.7 14 -10 78 78 N 10 17 30.39 1029 10 16.0934 0 0
8:53 pm 20:53 Cloudy 20 -6.7 13 -10.6 74 74 N 12 19 30.4 1029 10 16.0934 0 0
9:53 pm 21:53 Cloudy 19 -7.2 12 -11.1 74 74 N 8 13 30.43 1030 10 16.0934 0 0
10:53 pm 22:53 Cloudy 19 -7.2 11 -11.7 71 71 N 7 11 30.46 1031 10 16.0934 0 0
11:53 pm 23:53 Cloudy 19 -7.2 11 -11.7 71 71 NNW 10 17 30.48 1032 9 14.48406 0 0

Powered by AerisWeather